JJA124 RKSS-RKPC

Flight info

Callsign JJA124
Flight time N/A
Altitude 24000
Route BULTI2T/32R BULTI Y711 DOTOL
Aircraft B738/M-SDE2E3FGHIRWXY/LB1

Departure

Time N/A
Airport Gimpo International Airport (RKSS)

Arrival

Time 2025-09-09 12:39
Airport Jeju International Airport (RKPC)
Time Latitude Longitude Altitude Speed Heading
2025-09-09 12:00 36.30335 126.82945 23977 ft 424 kts 192°
2025-09-09 12:00 36.24459 126.82239 23976 ft 424 kts 191°
2025-09-09 12:01 36.18572 126.81592 23980 ft 424 kts 191°
2025-09-09 12:01 36.12727 126.80961 23985 ft 425 kts 191°
2025-09-09 12:02 36.06831 126.80321 23961 ft 424 kts 191°
2025-09-09 12:02 36.00948 126.79683 23975 ft 424 kts 191°
2025-09-09 12:02 35.98009 126.79365 23970 ft 424 kts 191°
2025-09-09 12:03 35.92138 126.78729 23966 ft 424 kts 191°
2025-09-09 12:04 35.83335 126.77777 23971 ft 423 kts 191°
2025-09-09 12:04 35.77472 126.77142 23971 ft 423 kts 191°
2025-09-09 12:05 35.71605 126.76508 23976 ft 423 kts 191°
2025-09-09 12:05 35.65735 126.75874 23973 ft 423 kts 191°
2025-09-09 12:06 35.59864 126.75241 23978 ft 424 kts 191°
2025-09-09 12:06 35.56914 126.74923 23977 ft 424 kts 190°
2025-09-09 12:07 35.48117 126.73978 23985 ft 425 kts 190°
2025-09-09 12:07 35.45168 126.73662 23984 ft 426 kts 190°
2025-09-09 12:08 35.33339 126.72398 23974 ft 426 kts 189°
2025-09-09 12:08 35.27428 126.71767 23977 ft 426 kts 189°
2025-09-09 12:09 35.24479 126.71452 23970 ft 426 kts 189°
2025-09-09 12:09 35.18580 126.70825 23973 ft 426 kts 189°
2025-09-09 12:10 35.12702 126.70199 23969 ft 426 kts 189°
2025-09-09 12:10 35.06794 126.69572 23971 ft 426 kts 189°
2025-09-09 12:11 35.00874 126.68944 23971 ft 426 kts 189°
2025-09-09 12:11 34.97923 126.68631 23960 ft 426 kts 189°
2025-09-09 12:12 34.90467 126.67841 23975 ft 426 kts 189°
2025-09-09 12:12 34.84599 126.67222 23957 ft 419 kts 189°
2025-09-09 12:13 34.78942 126.66629 23961 ft 402 kts 189°
2025-09-09 12:13 34.73329 126.66034 23752 ft 407 kts 189°
2025-09-09 12:14 34.67730 126.65445 22759 ft 399 kts 189°
2025-09-09 12:14 34.64977 126.65156 22226 ft 395 kts 189°
2025-09-09 12:14 34.59578 126.64590 21183 ft 389 kts 189°
2025-09-09 12:15 34.54218 126.64026 20129 ft 385 kts 189°
2025-09-09 12:16 34.46238 126.63188 18548 ft 383 kts 189°
2025-09-09 12:16 34.40923 126.62632 17356 ft 382 kts 189°
2025-09-09 12:17 34.35608 126.62077 16187 ft 381 kts 188°
2025-09-09 12:17 34.30367 126.61532 15181 ft 375 kts 188°
2025-09-09 12:18 34.25203 126.60994 14177 ft 371 kts 188°
2025-09-09 12:18 34.22657 126.60729 13654 ft 370 kts 188°
2025-09-09 12:19 34.15036 126.59937 12148 ft 361 kts 187°
2025-09-09 12:19 34.12542 126.59678 11710 ft 357 kts 187°
2025-09-09 12:20 34.05265 126.58923 10663 ft 337 kts 187°
2025-09-09 12:20 34.00753 126.58386 10351 ft 312 kts 195°
2025-09-09 12:21 33.95689 126.54562 9984 ft 270 kts 221°
2025-09-09 12:21 33.94272 126.53154 9929 ft 254 kts 220°
2025-09-09 12:21 33.92956 126.51863 9793 ft 235 kts 220°
2025-09-09 12:22 33.90596 126.49567 9482 ft 206 kts 220°
2025-09-09 12:22 33.88282 126.47321 9364 ft 223 kts 220°
2025-09-09 12:23 33.85913 126.45025 9204 ft 214 kts 220°
2025-09-09 12:24 33.82967 126.42165 8871 ft 211 kts 220°
2025-09-09 12:24 33.81219 126.40482 8730 ft 210 kts 220°
2025-09-09 12:25 33.79142 126.38071 8562 ft 206 kts 235°
2025-09-09 12:25 33.77008 126.35946 7971 ft 201 kts 213°
2025-09-09 12:25 33.75848 126.35029 7637 ft 199 kts 217°
2025-09-09 12:26 33.73612 126.33026 6964 ft 199 kts 219°
2025-09-09 12:27 33.70522 126.31416 6600 ft 174 kts 200°
2025-09-09 12:27 33.68214 126.30568 5999 ft 174 kts 199°
2025-09-09 12:28 33.64749 126.29274 5789 ft 206 kts 200°
2025-09-09 12:28 33.61926 126.28213 5371 ft 204 kts 199°
2025-09-09 12:29 33.59399 126.27264 5117 ft 181 kts 198°
2025-09-09 12:29 33.58216 126.26819 5053 ft 174 kts 199°
2025-09-09 12:30 33.55982 126.25975 4842 ft 163 kts 198°
2025-09-09 12:30 33.53800 126.25149 4688 ft 168 kts 198°
2025-09-09 12:31 33.51575 126.24309 4475 ft 167 kts 198°
2025-09-09 12:31 33.49366 126.23476 4280 ft 168 kts 198°
2025-09-09 12:32 33.47134 126.22635 4085 ft 168 kts 198°
2025-09-09 12:32 33.44563 126.24681 3689 ft 173 kts 120°
2025-09-09 12:33 33.43408 126.27211 3368 ft 169 kts 119°
2025-09-09 12:33 33.42852 126.28434 3240 ft 167 kts 119°
2025-09-09 12:34 33.42281 126.30997 2981 ft 166 kts 66°
2025-09-09 12:34 33.43298 126.33528 2569 ft 168 kts 65°
2025-09-09 12:35 33.44398 126.35859 2158 ft 152 kts 60°
2025-09-09 12:35 33.45997 126.39004 1610 ft 148 kts 61°
2025-09-09 12:36 33.47044 126.41057 1218 ft 139 kts 59°
2025-09-09 12:36 33.47536 126.42027 1067 ft 141 kts 58°
2025-09-09 12:37 33.48604 126.44135 677 ft 142 kts 58°
2025-09-09 12:37 33.49619 126.46120 271 ft 138 kts 61°
2025-09-09 12:38 33.50608 126.48048 93 ft 111 kts 59°
2025-09-09 12:38 33.50890 126.48794 88 ft 14 kts 91°
2025-09-09 12:39 33.50885 126.48903 89 ft 4 kts 92°
2025-09-09 12:39 33.50887 126.48939 88 ft 4 kts 83°
2025-09-09 12:40 33.50981 126.49151 89 ft 10 kts 59°
2025-09-09 12:40 33.51037 126.49337 89 ft 15 kts 133°
2025-09-09 12:41 33.50890 126.49324 92 ft 13 kts 236°
2025-09-09 12:41 33.50819 126.49301 90 ft 10 kts 183°
2025-09-09 12:42 33.50780 126.49299 91 ft 0 kts 182°